Voltar ao catálogo

SL-16 DEB

AtivoLEO
NORAD 27750·DEBRIS·🇷🇺 Russia

Lançado Dec 25, 1992 de Baikonur Cosmodrome

Loading…

Próximas Passagens (próximas 24 horas)

TLE

EnvelhecendoSource: Space-Track

Época: Sep 12, 2026, 10:14 UTC

1 27750U 92093JM  26255.42669482  .00002060  00000-0  65095-3 0  9991
2 27750  71.1500 254.4325 0071572 116.0088 244.8443 14.39896903684423

Acompanhe SL-16 DEB em tempo real com AllMySat

Download on the App Store